Preview of NWS' New Version of Forecast
This preview is not operational and should not be used for support decisions.

Regional Weather Roundup (RWR)

Issued by Gray - Portland, ME (GYX)

                            
416 
ASUS41 KGYX 212010
RWRGYX
WEATHER ROUNDUP FOR MAINE AND NEW HAMPSHIRE
NATIONAL WEATHER SERVICE GRAY ME
300 PM EST WED FEB 21 2018

MEZ002-005-006-010-012-015-018-020-021-024-026-027-029-212100-
MAINE
  
CITY           SKY/WX    TMP DP  RH WIND       PRES   REMARKS
PORTLAND       PTSUNNY   67  55  65 S14       30.01F                  
SANFORD        FAIR      74  55  51 SW13G22   30.02F                  
BAR HARBOR     FOG       47  47 100 S16       29.99F VSB 3/4          
WISCASSET      FAIR      60  53  77 S9        30.02S                  
ROCKLAND       FAIR      54  53  97 SW14      29.99F                  
FRYEBURG       FAIR      68  53  58 SW8G18    30.00S                  
LEWISTONAUBURN FAIR      65  51  60 S13       29.98F                  
AUGUSTA        FAIR      53  47  79 VRB3      29.97F                  
WATERVILLE     FAIR      50  45  83 SW6       29.93S                  
BANGOR         PTSUNNY   48  44  86 S9        29.96F                  
GREENVILLE       N/A     54  47  77 NW15G25   29.92R                  
MILLINOCKET    CLOUDY    47  44  90 SE8       29.91S                  
HOULTON        CLOUDY    46  45  96 W5        29.88R                  
PRESQUE ISLE   CLOUDY    41  40  96 S3        29.87R                  
FRENCHVILLE    CLOUDY    47  46  97 W10       29.82R FOG              
CARIBOU        CLOUDY    44  41  89 S6        29.84R                  
$$

NHZ002-005-008-009-011-012-014-212100-
NEW HAMPSHIRE
  
CITY           SKY/WX    TMP DP  RH WIND       PRES   REMARKS
PORTSMOUTH     PTSUNNY   74  55  49 SW12      30.02S                  
ROCHESTER      FAIR      75  54  47 MISG      30.02F                  
MANCHESTER     FAIR      75  55  49 S10       30.04S                  
CONCORD        FAIR      73  55  53 SW13      30.04F                  
LACONIA        FAIR      66  54  65 SW13      30.04S                  
PLYMOUTH       PTSUNNY   65  48  54 CALM      30.03S                  
BERLIN         CLOUDY    67  50  54 W8G20     29.99R                  
WHITEFIELD     CLOUDY    66  51  58 W8        30.01R                  
JAFFREY        FAIR      70  56  61 SW12G18   30.09S                  
LEBANON        FAIR      53  49  86 S9        30.05R                  
MT WASHINGTON  FOG       45  45 100 W75G82      N/A  VSB 1/16         
$$

VTZ005-007-008-212100-
VERMONT
  
CITY           SKY/WX    TMP DP  RH WIND       PRES   REMARKS
ST JOHNSBURY     N/A     57  52  83 MISG      30.06R                  
MONTPELIER     LGT RAIN  53  53 100 NW15G31   30.15R FOG              
BURLINGTON     CLOUDY    54  47  77 N9        30.16R                  
$$

MAZ007-012-024-CTZ003-RIZ002-NYZ038-NYZ072-212100-
SOUTHERN NEW ENGLAND AND NY
  
CITY           SKY/WX    TMP DP  RH WIND       PRES   REMARKS
BOSTON         PTSUNNY   71  56  58 SW15      30.10S                  
WORCESTER      FAIR      70  55  59 SW21G30   30.12F                  
NANTUCKET      FOG       48  48 100 SW17      30.24S VSB 1/4          
PROVIDENCE     FAIR      63  57  81 SW14      30.18S                  
HARTFORD       PTSUNNY   72  57  59 S13       30.13S                  
ALBANY         LGT RAIN  70  53  54 NW28G36   30.14R                  
NEW YORK CITY  FAIR      77  58  51 SW14      30.19S                  
$$

ANZ081-ANZ082-ANZ150-NHZ014-MEZ023>029-212100-
COASTAL MARINE OBSERVATIONS
  
STATION/POSITION TIME  TEMP    WIND        PRES    WAVE
                       AIR SEA DIR/SP/G            HT/PER
                 (UTC) (F)     (DEG/KT/KT) (MB)    (FT/S)
MOUNT DESERT ROC 2000   46     210/ 24/ 27 1016.1F
MATINICUS ROCK   2000   47     220/ 26/ 28 1015.7F
ISLE OF SHOALS   2000   62     190/ 28/ 29 1016.9S
JEFFREYS LEDGE   1936      42                N/A     4/12
GEORGES BANK BUO 1850   56 61              1022.7    8/10
$$

.............KEY..............
   WCI - WIND CHILL
   TC  - TEMPERATURE IN CELSIUS
   VSB - VISIBILITY IN MILES
   HX  - HEAT INDEX
   FAIR- INDICATES FEW OR NO CLOUDS BELOW 12,000 FT, WITH NO 
         SIGNIFICANT WEATHER AND/OR OBSTRUCTIONS TO VISIBILITY.